owner,sensor,date,latitude,longitude,vertical_datum,sea_water_temperature,qcFlag
BP,ioos:station:wmo:42369:1,2023-02-01T00:19:00Z,27.2056,-90.2872,2.0,23.0,11111222
BP,ioos:station:wmo:42369:1,2023-02-01T00:39:00Z,27.2056,-90.2872,2.0,23.0,11111222
BP,ioos:station:wmo:42369:1,2023-02-01T00:59:00Z,27.2056,-90.2872,2.0,22.9,11111222
BP,ioos:station:wmo:42369:1,2023-02-01T01:19:00Z,27.2056,-90.2872,2.0,22.9,11111222
BP,ioos:station:wmo:42369:1,2023-02-01T01:39:00Z,27.2057,-90.2850,2.0,22.8,11111222
BP,ioos:station:wmo:42369:1,2023-02-01T01:59:00Z,27.2057,-90.2850,2.0,22.8,11111222
BP,ioos:station:wmo:42369:1,2023-02-01T02:19:00Z,27.2057,-90.2850,2.0,22.8,11111222
BP,ioos:station:wmo:42369:1,2023-02-01T02:39:00Z,27.2057,-90.2850,2.0,22.8,11111222
BP,ioos:station:wmo:42369:1,2023-02-01T02:59:00Z,27.2057,-90.2850,2.0,22.9,11111222
BP,ioos:station:wmo:42369:1,2023-02-01T03:19:00Z,27.2057,-90.2850,2.0,22.9,11111222
BP,ioos:station:wmo:42369:1,2023-02-01T03:39:00Z,27.2057,-90.2850,2.0,22.9,11111222
BP,ioos:station:wmo:42369:1,2023-02-01T03:59:00Z,27.2057,-90.2850,2.0,22.9,11111222
BP,ioos:station:wmo:42369:1,2023-02-01T04:19:00Z,27.2036,-90.2835,2.0,23.0,11111222
BP,ioos:station:wmo:42369:1,2023-02-01T04:39:00Z,27.2036,-90.2835,2.0,23.0,11111222
BP,ioos:station:wmo:42369:1,2023-02-01T04:59:00Z,27.2036,-90.2835,2.0,22.9,11111222
BP,ioos:station:wmo:42369:1,2023-02-01T05:19:00Z,27.2028,-90.2839,2.0,22.9,11111222
BP,ioos:station:wmo:42369:1,2023-02-01T05:39:00Z,27.2028,-90.2839,2.0,22.9,11111222
BP,ioos:station:wmo:42369:1,2023-02-01T05:59:00Z,27.2028,-90.2839,2.0,22.9,11111222
BP,ioos:station:wmo:42369:1,2023-02-01T06:19:00Z,27.2028,-90.2839,2.0,22.9,11111222
BP,ioos:station:wmo:42369:1,2023-02-01T06:39:00Z,27.2026,-90.2847,2.0,22.9,11111222
BP,ioos:station:wmo:42369:1,2023-02-01T06:59:00Z,27.2026,-90.2847,2.0,22.9,11111222
BP,ioos:station:wmo:42369:1,2023-02-01T07:19:00Z,27.2026,-90.2847,2.0,22.9,11111222
BP,ioos:station:wmo:42369:1,2023-02-01T07:39:00Z,27.2026,-90.2847,2.0,22.9,11111222
BP,ioos:station:wmo:42369:1,2023-02-01T07:59:00Z,27.2026,-90.2847,2.0,22.9,11111222
BP,ioos:station:wmo:42369:1,2023-02-01T08:19:00Z,27.2026,-90.2861,2.0,22.9,11111222
BP,ioos:station:wmo:42369:1,2023-02-01T08:39:00Z,27.2026,-90.2861,2.0,22.9,11111222
BP,ioos:station:wmo:42369:1,2023-02-01T08:59:00Z,27.2026,-90.2861,2.0,22.9,11111222
BP,ioos:station:wmo:42369:1,2023-02-01T09:19:00Z,27.2028,-90.2873,2.0,22.9,11111222
BP,ioos:station:wmo:42369:1,2023-02-01T09:39:00Z,27.2028,-90.2873,2.0,22.9,11111222
BP,ioos:station:wmo:42369:1,2023-02-01T09:59:00Z,27.2028,-90.2873,2.0,22.9,11111222
BP,ioos:station:wmo:42369:1,2023-02-01T10:19:00Z,27.2028,-90.2873,2.0,22.9,11111222
BP,ioos:station:wmo:42369:1,2023-02-01T10:39:00Z,27.2028,-90.2873,2.0,22.9,11111222
BP,ioos:station:wmo:42369:1,2023-02-01T10:59:00Z,27.2028,-90.2873,2.0,22.9,11111222
BP,ioos:station:wmo:42369:1,2023-02-01T11:19:00Z,27.2028,-90.2873,2.0,22.9,11111222
BP,ioos:station:wmo:42369:1,2023-02-01T11:39:00Z,27.2028,-90.2873,2.0,22.9,11111222
BP,ioos:station:wmo:42369:1,2023-02-01T11:59:00Z,27.2028,-90.2873,2.0,22.9,11111222
BP,ioos:station:wmo:42369:1,2023-02-01T12:19:00Z,27.2043,-90.2897,2.0,22.9,11111222
BP,ioos:station:wmo:42369:1,2023-02-01T12:39:00Z,27.2043,-90.2897,2.0,22.9,11111222
BP,ioos:station:wmo:42369:1,2023-02-01T12:59:00Z,27.2043,-90.2897,2.0,22.9,11111222
BP,ioos:station:wmo:42369:1,2023-02-01T13:19:00Z,27.2043,-90.2897,2.0,22.9,11111222
BP,ioos:station:wmo:42369:1,2023-02-01T13:39:00Z,27.2043,-90.2897,2.0,22.9,11111222
BP,ioos:station:wmo:42369:1,2023-02-01T13:59:00Z,27.2043,-90.2897,2.0,22.9,11111222
BP,ioos:station:wmo:42369:1,2023-02-01T14:19:00Z,27.2052,-90.2902,2.0,22.9,11111222
BP,ioos:station:wmo:42369:1,2023-02-01T14:39:00Z,27.2052,-90.2902,2.0,22.9,11111222
BP,ioos:station:wmo:42369:1,2023-02-01T14:59:00Z,27.2052,-90.2902,2.0,22.8,11111222
BP,ioos:station:wmo:42369:1,2023-02-01T15:19:00Z,27.2052,-90.2902,2.0,22.8,11111222
BP,ioos:station:wmo:42369:1,2023-02-01T15:39:00Z,27.2052,-90.2902,2.0,22.9,11111222
BP,ioos:station:wmo:42369:1,2023-02-01T15:59:00Z,27.2052,-90.2902,2.0,22.9,11111222
BP,ioos:station:wmo:42369:1,2023-02-01T16:19:00Z,27.2061,-90.2905,2.0,22.9,11111222
BP,ioos:station:wmo:42369:1,2023-02-01T16:39:00Z,27.2061,-90.2905,2.0,23.0,11111222
BP,ioos:station:wmo:42369:1,2023-02-01T16:59:00Z,27.2061,-90.2905,2.0,23.0,11111222
BP,ioos:station:wmo:42369:1,2023-02-01T17:19:00Z,27.2066,-90.2907,2.0,23.1,11111222
BP,ioos:station:wmo:42369:1,2023-02-01T17:39:00Z,27.2066,-90.2907,2.0,23.1,11111222
BP,ioos:station:wmo:42369:1,2023-02-01T17:59:00Z,27.2066,-90.2907,2.0,23.2,11111222
BP,ioos:station:wmo:42369:1,2023-02-01T18:19:00Z,27.2069,-90.2906,2.0,23.3,11111222
BP,ioos:station:wmo:42369:1,2023-02-01T18:39:00Z,27.2069,-90.2906,2.0,23.3,11111222
BP,ioos:station:wmo:42369:1,2023-02-01T18:59:00Z,27.2069,-90.2906,2.0,23.3,11111222
BP,ioos:station:wmo:42369:1,2023-02-01T19:19:00Z,27.2070,-90.2903,2.0,23.3,11111222
BP,ioos:station:wmo:42369:1,2023-02-01T19:39:00Z,27.2070,-90.2903,2.0,23.4,11111222
BP,ioos:station:wmo:42369:1,2023-02-01T19:59:00Z,27.2070,-90.2903,2.0,23.4,11111222
BP,ioos:station:wmo:42369:1,2023-02-01T20:19:00Z,27.2073,-90.2901,2.0,23.3,11111222
BP,ioos:station:wmo:42369:1,2023-02-01T20:39:00Z,27.2073,-90.2901,2.0,23.3,11111222
BP,ioos:station:wmo:42369:1,2023-02-01T20:59:00Z,27.2073,-90.2901,2.0,23.4,11111222
BP,ioos:station:wmo:42369:1,2023-02-01T21:19:00Z,27.2071,-90.2901,2.0,23.4,11111222
BP,ioos:station:wmo:42369:1,2023-02-01T21:39:00Z,27.2071,-90.2901,2.0,23.4,11111222
BP,ioos:station:wmo:42369:1,2023-02-01T21:59:00Z,27.2071,-90.2901,2.0,23.3,11111222
BP,ioos:station:wmo:42369:1,2023-02-01T22:19:00Z,27.2065,-90.2898,2.0,23.3,11111222
BP,ioos:station:wmo:42369:1,2023-02-01T22:39:00Z,27.2065,-90.2898,2.0,23.2,11111222
BP,ioos:station:wmo:42369:1,2023-02-01T22:59:00Z,27.2065,-90.2898,2.0,23.3,11111222
BP,ioos:station:wmo:42369:1,2023-02-01T23:19:00Z,27.2065,-90.2898,2.0,23.3,11111222
BP,ioos:station:wmo:42369:1,2023-02-01T23:39:00Z,27.2062,-90.2898,2.0,23.3,11111222
BP,ioos:station:wmo:42369:1,2023-02-01T23:59:00Z,27.2062,-90.2898,2.0,23.2,11111222
BP,ioos:station:wmo:42369:1,2023-02-02T00:19:00Z,27.2060,-90.2897,2.0,23.2,11111222
BP,ioos:station:wmo:42369:1,2023-02-02T00:39:00Z,27.2059,-90.2896,2.0,23.2,11111222
BP,ioos:station:wmo:42369:1,2023-02-02T00:59:00Z,27.2058,-90.2897,2.0,23.2,11111222
BP,ioos:station:wmo:42369:1,2023-02-02T01:19:00Z,27.2056,-90.2897,2.0,23.1,11111222
BP,ioos:station:wmo:42369:1,2023-02-02T01:39:00Z,27.2054,-90.2897,2.0,23.1,11111222
BP,ioos:station:wmo:42369:1,2023-02-02T01:59:00Z,27.2054,-90.2897,2.0,23.2,11111222
BP,ioos:station:wmo:42369:1,2023-02-02T02:19:00Z,27.2052,-90.2897,2.0,23.1,11111222
BP,ioos:station:wmo:42369:1,2023-02-02T02:39:00Z,27.2052,-90.2897,2.0,23.1,11111222
BP,ioos:station:wmo:42369:1,2023-02-02T02:59:00Z,27.2052,-90.2897,2.0,23.1,11111222
BP,ioos:station:wmo:42369:1,2023-02-02T03:19:00Z,27.2050,-90.2896,2.0,23.1,11111222
BP,ioos:station:wmo:42369:1,2023-02-02T03:39:00Z,27.2050,-90.2895,2.0,23.1,11111222
BP,ioos:station:wmo:42369:1,2023-02-02T03:59:00Z,27.2050,-90.2895,2.0,23.1,11111222
BP,ioos:station:wmo:42369:1,2023-02-02T04:19:00Z,27.2050,-90.2895,2.0,23.1,11111222
BP,ioos:station:wmo:42369:1,2023-02-02T04:39:00Z,27.2050,-90.2894,2.0,23.1,11111222
BP,ioos:station:wmo:42369:1,2023-02-02T04:59:00Z,27.2049,-90.2894,2.0,23.1,11111222
BP,ioos:station:wmo:42369:1,2023-02-02T05:19:00Z,27.2048,-90.2894,2.0,23.1,11111222
BP,ioos:station:wmo:42369:1,2023-02-02T05:39:00Z,27.2047,-90.2894,2.0,23.1,11111222
BP,ioos:station:wmo:42369:1,2023-02-02T05:59:00Z,27.2048,-90.2894,2.0,23.1,11111222
BP,ioos:station:wmo:42369:1,2023-02-02T06:19:00Z,27.2049,-90.2894,2.0,23.1,11111222
BP,ioos:station:wmo:42369:1,2023-02-02T06:39:00Z,27.2049,-90.2893,2.0,23.0,11111222
BP,ioos:station:wmo:42369:1,2023-02-02T06:59:00Z,27.2048,-90.2893,2.0,23.0,11111222
BP,ioos:station:wmo:42369:1,2023-02-02T07:19:00Z,27.2047,-90.2892,2.0,23.1,11111222
BP,ioos:station:wmo:42369:1,2023-02-02T07:39:00Z,27.2046,-90.2891,2.0,23.1,11111222
BP,ioos:station:wmo:42369:1,2023-02-02T07:59:00Z,27.2045,-90.2890,2.0,23.0,11111222
BP,ioos:station:wmo:42369:1,2023-02-02T08:19:00Z,27.2045,-90.2890,2.0,23.0,11111222
BP,ioos:station:wmo:42369:1,2023-02-02T08:39:00Z,27.2046,-90.2889,2.0,23.0,11111222
BP,ioos:station:wmo:42369:1,2023-02-02T08:59:00Z,27.2045,-90.2889,2.0,23.0,11111222
BP,ioos:station:wmo:42369:1,2023-02-02T09:19:00Z,27.2045,-90.2889,2.0,23.0,11111222
BP,ioos:station:wmo:42369:1,2023-02-02T09:39:00Z,27.2045,-90.2888,2.0,23.0,11111222
BP,ioos:station:wmo:42369:1,2023-02-02T09:59:00Z,27.2045,-90.2889,2.0,23.0,11111222
BP,ioos:station:wmo:42369:1,2023-02-02T10:19:00Z,27.2046,-90.2889,2.0,23.0,11111222
BP,ioos:station:wmo:42369:1,2023-02-02T10:39:00Z,27.2045,-90.2890,2.0,23.0,11111222
BP,ioos:station:wmo:42369:1,2023-02-02T10:59:00Z,27.2045,-90.2889,2.0,23.0,11111222
BP,ioos:station:wmo:42369:1,2023-02-02T11:19:00Z,27.2045,-90.2889,2.0,23.0,11111222
BP,ioos:station:wmo:42369:1,2023-02-02T11:39:00Z,27.2044,-90.2890,2.0,23.0,11111222
BP,ioos:station:wmo:42369:1,2023-02-02T11:59:00Z,27.2043,-90.2890,2.0,23.0,11111222
BP,ioos:station:wmo:42369:1,2023-02-02T12:19:00Z,27.2043,-90.2890,2.0,23.0,11111222
BP,ioos:station:wmo:42369:1,2023-02-02T12:39:00Z,27.2042,-90.2889,2.0,23.0,11111222
BP,ioos:station:wmo:42369:1,2023-02-02T12:59:00Z,27.2042,-90.2890,2.0,23.0,11111222
BP,ioos:station:wmo:42369:1,2023-02-02T13:19:00Z,27.2042,-90.2890,2.0,23.0,11111222
BP,ioos:station:wmo:42369:1,2023-02-02T13:39:00Z,27.2042,-90.2890,2.0,23.0,11111222
BP,ioos:station:wmo:42369:1,2023-02-02T13:59:00Z,27.2042,-90.2890,2.0,23.0,11111222
BP,ioos:station:wmo:42369:1,2023-02-02T14:19:00Z,27.2041,-90.2890,2.0,23.0,11111222
BP,ioos:station:wmo:42369:1,2023-02-02T14:39:00Z,27.2041,-90.2890,2.0,23.0,11111222
BP,ioos:station:wmo:42369:1,2023-02-02T14:59:00Z,27.2040,-90.2890,2.0,23.0,11111222
